Location: Barruelo
(41.2448°N, 3.8231°W)
Time: 05:02:06
(UTC+00:00)

ARIANE 5 R/B - Pass Details

Date: 11 December 2025
Orbit: 747 x 792 km, 98.8° (Epoch: 13 January)

Event Time Altitude Azimuth Distance (km) Brightness Sun altitude
Rises 17:15:57 0° 145° (SE) 3,203 5.6 -5.7°
Reaches altitude 10° 17:18:19 10° 138° (SE) 2,288 4.8 -6.2°
Maximum altitude 17:23:02 41° 69° (ENE) 1,097 2.9 -7.0°
Drops below altitude 10° 17:27:49 10° 0° (N) 2,330 4.8 -7.8°
Sets 17:30:15 0° 354° (N) 3,269 5.6 -8.2°
